Total_Precipitation_Accumulation
1.12 1.76 2.32 1.58 1.43 1.11 1.01 1.25 0.65 0.25 0.22 0.39 0.35 0.25 0.08 0.09 0.09 0.15 0.17 0.09 0.03 0.05 0.09 0.22 0.52 0.60 0.43 0.32 0.28 0.69 0.78 1.18 1.91 2.57 2.06 1.67 1.43 1.02 1.16 1.07 1.39 2.44 2.09 1.95
1.63 0.89 0.35 0.76 1.68 1.98 2.03 1.91 1.24 0.66 0.48 0.54 0.31 0.32 0.22 0.10 0.05 0.08 0.12 0.12 0.08 0.06 0.10 0.12 0.36 0.50 0.54 0.48 0.40 0.41 0.63 1.10 1.15 1.42 1.33 1.15 1.00 1.06 0.94 0.96 0.99 1.15 2.00 2.06
0.98 0.55 0.22 0.65 1.44 2.30 1.89 1.78 1.30 1.31 0.94 0.65 0.47 0.60 0.47 0.22 0.07 0.14 0.24 0.27 0.19 0.08 0.09 0.10 0.23 0.34 0.46 0.48 0.47 0.56 0.68 0.81 1.21 1.06 1.09 1.00 1.22 1.22 1.21 1.13 0.96 0.89 1.05 1.48
0.87 0.56 0.61 0.51 0.78 1.25 1.59 1.02 1.35 1.58 1.86 1.67 0.95 1.56 0.44 0.27 0.13 0.07 0.15 0.25 0.31 0.15 0.09 0.07 0.10 0.21 0.24 0.40 0.38 0.56 0.91 1.21 1.16 1.19 1.35 0.83 0.62 0.70 0.63 0.72 0.78 0.71 0.68 0.79
1.33 0.52 0.87 0.98 0.43 0.76 1.12 0.78 1.24 1.61 2.08 2.04 1.24 1.41 0.34 0.16 0.24 0.06 0.05 0.16 0.26 0.31 0.30 0.14 0.11 0.20 0.19 0.20 0.37 0.41 0.70 1.41 1.79 2.06 1.62 1.22 0.77 0.58 0.55 0.74 0.80 0.89 0.85 0.87
1.28 0.73 1.12 0.82 0.36 0.81 1.09 1.21 1.54 2.21 3.07 3.61 1.34 1.19 0.45 0.36 0.44 0.10 0.03 0.05 0.23 0.32 0.33 0.20 0.12 0.19 0.23 0.19 0.27 0.57 0.56 1.00 1.75 2.05 3.02 2.76 1.80 1.10 0.91 0.82 0.87 1.18 1.23 1.35
1.74 1.26 1.17 1.09 1.19 1.23 1.74 1.99 2.94 3.65 3.85 2.23 0.61 0.99 0.54 0.29 0.20 0.24 0.20 0.16 0.37 0.42 0.28 0.29 0.18 0.16 0.18 0.16 0.25 0.66 0.71 0.70 1.03 1.51 1.76 2.42 3.24 2.97 2.46 1.98 1.57 1.48 1.62 1.52
1.66 1.64 1.35 1.95 1.68 1.44 1.20 1.37 1.64 1.55 1.10 0.63 0.60 1.01 0.51 0.27 0.39 0.50 0.39 0.47 0.32 0.23 0.30 0.37 0.38 0.33 0.24 0.22 0.40 0.51 0.55 0.86 0.88 0.62 0.71 0.99 1.43 1.81 2.51 3.17 2.84 2.08 2.16 2.29
1.64 1.27 1.11 1.86 2.11 1.20 1.18 1.41 0.63 1.24 0.78 0.71 0.77 0.59 0.26 0.16 0.33 0.42 0.52 0.34 0.24 0.25 0.28 0.39 0.42 0.45 0.48 0.44 0.57 0.58 0.58 0.93 1.04 0.87 0.65 0.80 1.27 1.62 1.88 2.20 2.60 2.82 2.61 2.93
1.54 1.75 0.85 1.53 2.61 1.65 1.01 0.69 1.16 2.08 1.83 0.90 0.49 0.60 1.05 0.74 0.56 0.33 0.45 0.36 0.33 0.28 0.36 0.43 0.45 0.55 0.66 0.97 1.15 1.22 1.24 1.48 1.09 0.95 1.09 1.05 0.97 1.24 1.80 2.26 2.26 2.79 3.23 3.15
0.95 1.63 1.10 2.09 3.38 2.42 1.53 1.47 1.35 1.25 1.17 1.32 1.06 1.25 1.99 0.93 0.69 0.65 0.41 0.31 0.36 0.37 0.42 0.55 0.50 0.58 1.06 1.44 1.56 1.59 2.04 2.26 1.45 1.36 1.21 1.36 1.70 1.59 1.80 1.81 1.88 2.34 2.77 3.03
0.59 1.57 1.70 2.03 2.48 1.82 1.53 1.45 1.58 2.13 1.54 1.28 1.45 1.52 1.50 0.98 0.97 0.77 0.48 0.41 0.44 0.54 0.56 0.58 0.93 1.03 1.68 1.96 2.05 2.02 2.20 2.64 2.15 2.09 1.93 1.63 1.83 1.79 2.03 1.92 1.90 2.00 2.02 2.19
0.93 1.77 2.27 2.30 2.06 1.54 2.01 1.70 1.54 1.67 2.41 2.28 1.93 1.69 1.16 1.21 1.10 0.87 0.67 0.63 0.63 0.64 0.74 0.88 1.50 2.37 2.40 2.30 2.60 2.80 2.79 2.53 1.97 1.91 1.77 1.82 1.83 1.86 2.13 2.19 2.05 1.87 1.73 1.75
1.19 1.41 1.59 2.07 1.96 1.85 1.45 1.19 1.10 2.03 3.29 2.20 1.79 1.55 1.64 1.46 1.38 1.19 1.10 1.01 1.01 1.09 1.44 1.65 1.90 2.43 3.07 2.93 3.24 3.09 3.41 3.30 3.18 3.04 2.64 2.64 2.77 2.66 2.68 2.66 2.64 2.33 2.24 2.14
1.66 2.03 0.86 0.90 0.98 1.59 1.72 1.31 1.20 1.59 1.75 1.95 1.98 1.90 2.31 2.23 2.11 2.03 1.91 1.72 1.52 1.53 1.78 2.19 2.61 3.22 3.92 4.17 3.55 3.04 2.79 3.03 3.21 3.12 3.01 3.24 3.22 3.09 2.97 2.88 2.92 2.59 2.30 2.18
1.40 2.13 1.08 0.99 1.02 1.38 1.41 1.03 1.19 1.34 1.21 1.13 1.13 1.52 2.49 2.52 2.24 2.23 2.47 2.13 2.02 2.09 2.41 3.16 3.67 4.07 3.92 3.25 2.94 2.45 2.29 2.57 2.83 2.84 2.85 2.76 2.48 2.34 2.19 2.06 2.03 2.03 2.04 1.96
1.95 2.35 2.10 2.18 0.79 0.98 2.62 2.13 1.29 1.72 1.56 1.03 1.42 2.78 3.16 2.71 2.21 2.44 2.54 2.34 2.46 2.92 3.24 3.48 3.39 2.80 2.28 1.94 1.53 1.68 1.78 1.75 1.86 1.85 1.82 1.77 1.75 1.77 1.66 1.40 1.19 1.09 1.00 0.85
2.06 2.02 2.46 2.71 1.62 3.98 2.91 1.36 1.15 1.85 1.75 1.86 1.83 2.27 2.88 3.17 2.58 2.46 2.55 2.25 2.49 2.67 2.57 2.21 1.92 1.64 1.67 1.47 1.30 1.14 1.24 1.30 1.21 1.19 1.15 1.11 1.03 0.87 0.65 0.53 0.49 0.46 0.43 0.41
2.08 2.35 3.59 3.75 2.63 1.94 0.81 0.93 1.10 1.18 1.84 2.08 1.96 1.71 2.44 2.50 1.27 1.97 2.32 2.23 2.32 2.08 1.94 1.82 1.86 1.71 1.09 0.95 0.88 0.69 0.68 0.62 0.61 0.63 0.60 0.54 0.46 0.39 0.31 0.29 0.27 0.27 0.26 0.27
1.57 2.14 3.21 4.03 3.36 2.33 1.21 0.54 0.43 0.88 2.03 2.20 2.46 2.21 1.66 0.72 1.04 2.34 2.18 1.80 1.74 1.50 1.21 0.99 0.80 0.69 0.58 0.63 0.44 0.29 0.28 0.25 0.26 0.26 0.25 0.28 0.31 0.28 0.24 0.22 0.20 0.20 0.18 0.17
2.08 2.78 3.84 3.09 2.81 1.91 0.69 0.16 0.03 0.79 2.14 2.24 2.27 1.80 0.54 0.48 1.01 1.48 0.93 0.76 0.72 0.64 0.63 0.57 0.49 0.43 0.40 0.39 0.37 0.30 0.28 0.30 0.26 0.19 0.15 0.13 0.14 0.15 0.10 0.10 0.09 0.09 0.10 0.13
1.21 1.93 2.45 2.46 3.06 2.45 0.42 0.14 0.55 1.23 1.35 1.58 1.43 0.98 0.68 0.92 1.01 0.82 0.62 0.59 0.48 0.46 0.36 0.33 0.19 0.13 0.11 0.10 0.10 0.10 0.07 0.08 0.11 0.12 0.10 0.10 0.09 0.08 0.09 0.11 0.13 0.15 0.17 0.19
0.40 0.63 0.79 1.00 1.43 0.99 0.66 0.65 0.85 0.90 0.92 0.79 0.47 0.40 0.30 0.22 0.18 0.13 0.11 0.08 0.06 0.04 0.03 0.04 0.02 0.03 0.04 0.05 0.07 0.09 0.09 0.10 0.12 0.12 0.13 0.12 0.12 0.13 0.14 0.16 0.16 0.19 0.22 0.25
0.17 0.09 0.33 0.52 0.57 0.56 0.60 0.41 0.39 0.40 0.30 0.10 0.02 0.02 0.03 0.02 0.02 0.02 0.02 0.02 0.02 0.02 0.02 0.02 0.01 0.01 0.01 0.01 0.02 0.03 0.05 0.06 0.09 0.10 0.09 0.08 0.07 0.09 0.09 0.10 0.12 0.17 0.23 0.28
0.20 0.14 0.13 0.21 0.23 0.32 0.30 0.16 0.16 0.19 0.20 0.14 0.03 0.00 0.00 0.00 0.00 0.00 0.00 0.00 0.00 0.00 0.00 0.00 0.00 0.00 0.01 0.01 0.01 0.03 0.04 0.06 0.06 0.06 0.06 0.06 0.06 0.06 0.07 0.10 0.12 0.16 0.19 0.26
0.11 0.16 0.21 0.24 0.17 0.17 0.12 0.05 0.01 0.01 0.01 0.01 0.00 0.00 0.00 0.00 0.00 0.00 0.00 0.00 0.00 0.00 0.00 0.00 0.00 0.01 0.02 0.01 0.02 0.03 0.06 0.06 0.09 0.10 0.08 0.08 0.08 0.10 0.12 0.15 0.21 0.22 0.25 0.33